When you browse on this site, cookies collect data to enhance your experience and personalize the content and advertising you see.
Visit our Privacy Policy to learn more. By continuing to use the site, you agree to this use of cookies and data.
  • In Schweiz
  • Länderverzeichnis
  • Für 7 Tage
  • Wassertemperatur
  • Wetterkarte
  • Widgets
  • user-avatar
    Anmelden

    Stündliche Wetter Zhohovo

    Heute, 5 Juni, Freitag

    Zeit Temperatur Niederschläge Wind Luftdruck Luftfeuchtigkeit
    00:00 +11°C° 0 mm 3 m/S 741 mmHg 93%
    01:00 +11°C° 0 mm 3 m/S 742 mmHg 93%
    02:00 +10°C° 0 mm 3 m/S 742 mmHg 93%
    03:00 +10°C° 0 mm 3 m/S 742 mmHg 94%
    04:00 +11°C° 0 mm 3 m/S 742 mmHg 93%
    05:00 +12°C° 0 mm 3 m/S 742 mmHg 91%
    06:00 +12°C° 0 mm 4 m/S 742 mmHg 89%
    07:00 +13°C° 0.1 mm 4 m/S 742 mmHg 86%
    08:00 +15°C° 0.1 mm 5 m/S 742 mmHg 82%
    09:00 +16°C° 0 mm 5 m/S 743 mmHg 77%
    10:00 +17°C° 0.2 mm 6 m/S 742 mmHg 75%
    11:00 +18°C° 0.2 mm 7 m/S 742 mmHg 72%
    12:00 +18°C° 0.2 mm 7 m/S 742 mmHg 70%
    13:00 +17°C° 0.6 mm 8 m/S 742 mmHg 74%
    14:00 +17°C° 0.6 mm 8 m/S 742 mmHg 78%
    15:00 +16°C° 0.6 mm 8 m/S 742 mmHg 82%
    16:00 +15°C° 0.6 mm 8 m/S 742 mmHg 85%
    17:00 +14°C° 0.6 mm 7 m/S 742 mmHg 89%
    18:00 +13°C° 0.6 mm 6 m/S 742 mmHg 93%
    19:00 +13°C° 0.5 mm 6 m/S 742 mmHg 93%
    20:00 +13°C° 0.5 mm 5 m/S 742 mmHg 94%
    21:00 +13°C° 0.5 mm 4 m/S 742 mmHg 95%
    22:00 +12°C° 0.5 mm 4 m/S 742 mmHg 96%
    23:00 +12°C° 0.5 mm 4 m/S 742 mmHg 96%

    Morgen, 6 Juni, Samstag

    Zeit Temperatur Niederschläge Wind Luftdruck Luftfeuchtigkeit
    00:00 +12°C° 0.5 mm 4 m/S 743 mmHg 97%
    01:00 +13°C° 0 mm 3 m/S 743 mmHg 97%
    02:00 +13°C° 0 mm 3 m/S 743 mmHg 97%
    03:00 +13°C° 0 mm 3 m/S 743 mmHg 97%
    04:00 +13°C° 0 mm 3 m/S 743 mmHg 97%
    05:00 +13°C° 0 mm 3 m/S 743 mmHg 97%
    06:00 +13°C° 0 mm 3 m/S 744 mmHg 97%
    07:00 +14°C° 0 mm 3 m/S 744 mmHg 95%
    08:00 +16°C° 0 mm 3 m/S 744 mmHg 93%
    09:00 +18°C° 0 mm 4 m/S 744 mmHg 92%
    10:00 +18°C° 0 mm 4 m/S 744 mmHg 90%
    11:00 +19°C° 0 mm 4 m/S 745 mmHg 88%
    12:00 +20°C° 0 mm 5 m/S 745 mmHg 86%
    13:00 +21°C° 0.2 mm 4 m/S 745 mmHg 83%
    14:00 +22°C° 0.2 mm 4 m/S 745 mmHg 81%
    15:00 +23°C° 0.2 mm 4 m/S 745 mmHg 78%
    16:00 +23°C° 0.2 mm 4 m/S 744 mmHg 80%
    17:00 +24°C° 0.2 mm 3 m/S 744 mmHg 82%
    18:00 +22°C° 0.2 mm 3 m/S 744 mmHg 84%
    19:00 +21°C° 0.6 mm 3 m/S 744 mmHg 87%
    20:00 +20°C° 0.6 mm 3 m/S 745 mmHg 89%
    21:00 +19°C° 0.6 mm 2 m/S 745 mmHg 92%
    22:00 +19°C° 0.2 mm 2 m/S 745 mmHg 93%
    23:00 +18°C° 0.2 mm 3 m/S 745 mmHg 94%

    übermorgen, 7 Juni, Sonntag

    Zeit Temperatur Niederschläge Wind Luftdruck Luftfeuchtigkeit
    00:00 +18°C° 0.2 mm 3 m/S 745 mmHg 94%
    01:00 +18°C° 0 mm 3 m/S 745 mmHg 94%
    02:00 +17°C° 0 mm 2 m/S 746 mmHg 95%
    03:00 +17°C° 0 mm 2 m/S 746 mmHg 95%
    04:00 +17°C° 0 mm 2 m/S 746 mmHg 94%
    05:00 +18°C° 0 mm 2 m/S 746 mmHg 94%
    06:00 +19°C° 0 mm 1 m/S 746 mmHg 94%
    07:00 +21°C° 0 mm 1 m/S 747 mmHg 90%
    08:00 +22°C° 0 mm 1 m/S 747 mmHg 86%
    09:00 +23°C° 0 mm 1 m/S 747 mmHg 81%
    10:00 +24°C° 1.1 mm 2 m/S 747 mmHg 79%
    11:00 +25°C° 1.1 mm 2 m/S 747 mmHg 76%
    12:00 +26°C° 1.1 mm 3 m/S 747 mmHg 73%
    13:00 +26°C° 0.8 mm 3 m/S 747 mmHg 73%
    14:00 +26°C° 0.8 mm 3 m/S 747 mmHg 73%
    15:00 +26°C° 0.8 mm 3 m/S 747 mmHg 72%
    16:00 +26°C° 0.2 mm 3 m/S 747 mmHg 75%
    17:00 +26°C° 0.2 mm 3 m/S 747 mmHg 77%
    18:00 +25°C° 0.2 mm 3 m/S 747 mmHg 80%
    19:00 +24°C° 0 mm 2 m/S 747 mmHg 84%
    20:00 +23°C° 0 mm 2 m/S 747 mmHg 87%
    21:00 +20°C° 0 mm 2 m/S 747 mmHg 91%
    22:00 +21°C° 0 mm 1 m/S 747 mmHg 92%
    23:00 +20°C° 0 mm 1 m/S 747 mmHg 92%

    8 Juni, Montag

    Zeit Temperatur Niederschläge Wind Luftdruck Luftfeuchtigkeit
    00:00 +20°C° 0 mm 1 m/S 747 mmHg 93%
    01:00 +19°C° 0 mm 1 m/S 747 mmHg 93%
    02:00 +19°C° 0 mm 1 m/S 747 mmHg 93%
    03:00 +19°C° 0 mm 1 m/S 748 mmHg 94%
    04:00 +18°C° 0 mm 2 m/S 748 mmHg 93%
    05:00 +19°C° 0 mm 2 m/S 748 mmHg 93%
    06:00 +19°C° 0 mm 2 m/S 748 mmHg 93%
    07:00 +20°C° 0 mm 2 m/S 748 mmHg 90%
    08:00 +21°C° 0 mm 3 m/S 748 mmHg 87%
    09:00 +24°C° 0 mm 3 m/S 748 mmHg 84%
    10:00 +23°C° 0.3 mm 4 m/S 748 mmHg 82%
    11:00 +25°C° 0.3 mm 4 m/S 748 mmHg 80%
    12:00 +26°C° 0.3 mm 4 m/S 748 mmHg 78%
    13:00 +26°C° 0.2 mm 4 m/S 748 mmHg 76%
    14:00 +26°C° 0.2 mm 5 m/S 748 mmHg 75%
    15:00 +26°C° 0.2 mm 5 m/S 747 mmHg 74%
    16:00 +25°C° 0 mm 4 m/S 747 mmHg 75%
    17:00 +25°C° 0 mm 4 m/S 747 mmHg 77%
    18:00 +25°C° 0 mm 3 m/S 747 mmHg 78%
    19:00 +22°C° 0 mm 3 m/S 747 mmHg 81%
    20:00 +21°C° 0 mm 3 m/S 747 mmHg 85%
    21:00 +19°C° 0 mm 2 m/S 747 mmHg 89%
    22:00 +19°C° 0 mm 2 m/S 747 mmHg 89%
    23:00 +18°C° 0 mm 2 m/S 747 mmHg 90%

    9 Juni, Dienstag

    Zeit Temperatur Niederschläge Wind Luftdruck Luftfeuchtigkeit
    00:00 +18°C° 0 mm 2 m/S 747 mmHg 91%
    01:00 +17°C° 0 mm 2 m/S 747 mmHg 92%
    02:00 +17°C° 0 mm 2 m/S 747 mmHg 92%
    03:00 +16°C° 0 mm 2 m/S 748 mmHg 93%
    04:00 +17°C° 0 mm 2 m/S 748 mmHg 93%
    05:00 +17°C° 0 mm 2 m/S 748 mmHg 92%
    06:00 +18°C° 0 mm 2 m/S 748 mmHg 91%
    07:00 +19°C° 0 mm 2 m/S 748 mmHg 87%
    08:00 +20°C° 0 mm 3 m/S 748 mmHg 83%
    09:00 +21°C° 0 mm 3 m/S 748 mmHg 79%
    10:00 +22°C° 0 mm 3 m/S 748 mmHg 77%
    11:00 +24°C° 0 mm 3 m/S 748 mmHg 75%
    12:00 +24°C° 0 mm 3 m/S 748 mmHg 72%
    13:00 +25°C° 0.1 mm 3 m/S 748 mmHg 72%
    14:00 +25°C° 0.1 mm 3 m/S 748 mmHg 71%
    15:00 +25°C° 0.1 mm 3 m/S 748 mmHg 71%
    16:00 +25°C° 0.1 mm 3 m/S 748 mmHg 73%
    17:00 +25°C° 0.1 mm 3 m/S 748 mmHg 75%
    18:00 +24°C° 0.1 mm 2 m/S 747 mmHg 77%
    19:00 +23°C° 0.1 mm 2 m/S 748 mmHg 82%
    20:00 +21°C° 0.1 mm 2 m/S 748 mmHg 87%
    21:00 +19°C° 0.1 mm 2 m/S 748 mmHg 93%
    22:00 +19°C° 0 mm 2 m/S 748 mmHg 93%
    23:00 +18°C° 0 mm 2 m/S 748 mmHg 94%

    10 Juni, Mittwoch

    Zeit Temperatur Niederschläge Wind Luftdruck Luftfeuchtigkeit
    00:00 +18°C° 0 mm 2 m/S 748 mmHg 94%
    01:00 +17°C° 0 mm 2 m/S 748 mmHg 94%
    02:00 +18°C° 0 mm 1 m/S 748 mmHg 94%
    03:00 +18°C° 0 mm 1 m/S 748 mmHg 94%
    04:00 +18°C° 0 mm 1 m/S 748 mmHg 94%
    05:00 +18°C° 0 mm 2 m/S 748 mmHg 94%
    06:00 +18°C° 0 mm 2 m/S 748 mmHg 94%
    07:00 +20°C° 0 mm 2 m/S 748 mmHg 89%
    08:00 +21°C° 0 mm 2 m/S 748 mmHg 85%
    09:00 +24°C° 0 mm 2 m/S 748 mmHg 81%
    10:00 +25°C° 0 mm 2 m/S 748 mmHg 77%
    11:00 +26°C° 0 mm 3 m/S 748 mmHg 74%
    12:00 +27°C° 0 mm 3 m/S 749 mmHg 71%
    13:00 +27°C° 0.1 mm 3 m/S 748 mmHg 71%
    14:00 +27°C° 0.1 mm 2 m/S 748 mmHg 71%
    15:00 +27°C° 0.1 mm 2 m/S 748 mmHg 72%
    16:00 +27°C° 1.2 mm 2 m/S 748 mmHg 75%
    17:00 +27°C° 1.2 mm 2 m/S 748 mmHg 78%
    18:00 +27°C° 1.2 mm 2 m/S 748 mmHg 81%
    19:00 +25°C° 0.2 mm 2 m/S 748 mmHg 83%
    20:00 +24°C° 0.2 mm 3 m/S 748 mmHg 86%
    21:00 +22°C° 0.2 mm 3 m/S 748 mmHg 89%
    22:00 +21°C° 0 mm 3 m/S 748 mmHg 90%
    23:00 +21°C° 0 mm 3 m/S 748 mmHg 90%
    Mehr zeigen